Weather History for Russellville, AR

Change the Weather History Date:

Sunday, June 16, 2013

  Actual Average (KHOT) Record (KHOT)
Temperature  
Mean Temperature 82 °F -  
Max Temperature 91 °F 89 °F 101 °F (1953)
Min Temperature 73 °F 65 °F 49 °F (1989)
Cooling Degree Days 16    
Growing Degree Days 32 (Base 50)    
Moisture  
Dew Point 71 °F    
Average Humidity 81    
Maximum Humidity 94    
Minimum Humidity 55    
Precipitation  
Precipitation 0.06 in - - ()
Sea Level Pressure  
Sea Level Pressure 29.97 in    
Wind  
Wind Speed 2 mph (WSW)    
Max Wind Speed 9 mph    
Max Gust Speed -    
Visibility 8 miles    
Events Rain    
Averages and records for this station are not official NWS values.
T = Trace of Precipitation, MM = Missing Value Source: NWS Daily Summary

Daily Weather History Graph

Daily Weather History Graph

Search for Another Location

Airport:

Trip Planner

Search our weather history database for the weather conditions in past years. The results will help you decide how hot, cold, wet, or windy it might be!

Date:

Astronomy

Jun. 16, 2013 Rise Set
Actual Time 5:57 AM CDT 8:29 PM CDT
Civil Twilight 5:27 AM CDT 8:58 PM CDT
Nautical Twilight 4:50 AM CDT 9:35 PM CDT
Astronomical Twilight 4:09 AM CDT 10:16 PM CDT
Moon 1:18 PM CDT (6/16) 12:48 AM CDT (6/16)
Length of Visible Light 15h 31m
Length of Day
14h 31m
Waxing Crescent, 50% of the Moon is Illuminated
Jun 16
Waxing Crescent
Jun 16
First Quarter
Jun 23
Full
Jun 29
Last Quarter
Jul 8
New

Hourly Weather History & Observations

Time (CDT) Temp. Heat Index Dew Point Humidity Pressure Visibility Wind Dir Wind Speed Gust Speed Precip Events Conditions
12:53 AM 75.9 °F - 68.0 °F 76% 29.96 in 10.0 mi East 3.5 mph - N/A   Clear
1:53 AM 77.0 °F - 68.0 °F 74% 29.96 in 10.0 mi Calm Calm - N/A   Clear
2:53 AM 77.0 °F - 66.9 °F 71% 29.92 in 10.0 mi Variable 3.5 mph - N/A   Clear
3:53 AM 73.9 °F - 68.0 °F 82% 29.94 in 10.0 mi Calm Calm - N/A   Clear
4:53 AM 73.9 °F - 68.0 °F 82% 29.97 in 10.0 mi Calm Calm - N/A   Scattered Clouds
5:53 AM 73.0 °F - 69.1 °F 87% 29.99 in 10.0 mi Calm Calm - 0.00 in Rain Light Rain
6:53 AM 73.9 °F - 70.0 °F 87% 30.02 in 10.0 mi West 4.6 mph - 0.00 in   Overcast
7:15 AM 73.4 °F - 69.8 °F 88% 30.05 in 1.8 mi Calm Calm - 0.00 in Rain Heavy Rain
7:32 AM 73.4 °F - 71.6 °F 94% 30.04 in 2.5 mi ESE 4.6 mph - 0.01 in Rain Rain
7:42 AM 73.4 °F - 71.6 °F 94% 30.03 in 4.0 mi Calm Calm - 0.02 in Rain Light Rain
7:53 AM 73.0 °F - 71.1 °F 93% 30.01 in 4.0 mi ENE 3.5 mph - 0.02 in   Partly Cloudy
8:53 AM 77.0 °F - 72.0 °F 84% 30.00 in 8.0 mi Calm Calm - 0.02 in   Partly Cloudy
9:53 AM 77.0 °F - 73.0 °F 88% 30.03 in 4.0 mi Calm Calm - 0.01 in   Mostly Cloudy
10:08 AM 75.2 °F - 73.4 °F 94% 30.05 in 4.0 mi SW 3.5 mph - N/A   Mostly Cloudy
10:53 AM 77.0 °F - 73.0 °F 88% 30.02 in 7.0 mi SSW 4.6 mph - 0.00 in   Mostly Cloudy
11:53 AM 78.1 °F - 71.1 °F 79% 30.01 in 10.0 mi Variable 3.5 mph - 0.01 in   Scattered Clouds
12:53 PM 82.9 °F 88.0 °F 72.0 °F 69% 29.97 in 10.0 mi Calm Calm - N/A   Clear
1:53 PM 87.1 °F 93.6 °F 72.0 °F 61% 29.97 in 10.0 mi Variable 4.6 mph - N/A   Clear
2:53 PM 88.0 °F 94.7 °F 72.0 °F 59% 29.95 in 10.0 mi Calm Calm - N/A   Partly Cloudy
3:53 PM 90.0 °F 96.9 °F 72.0 °F 55% 29.92 in 10.0 mi West 3.5 mph - N/A   Clear
4:53 PM 87.1 °F 95.4 °F 73.9 °F 65% 29.92 in 10.0 mi Calm Calm - N/A   Clear
5:53 PM 82.9 °F 91.8 °F 77.0 °F 82% 29.91 in 10.0 mi Calm Calm - N/A   Clear
6:53 PM 82.0 °F 90.2 °F 77.0 °F 85% 29.89 in 10.0 mi Calm Calm - N/A   Clear
7:53 PM 82.0 °F 88.6 °F 75.0 °F 79% 29.94 in 10.0 mi WNW 9.2 mph - 0.00 in   Mostly Cloudy
8:53 PM 75.9 °F - 71.1 °F 85% 29.94 in 6.0 mi Calm Calm - 0.00 in Rain Rain
9:53 PM 75.0 °F - 72.0 °F 90% 29.96 in 9.0 mi Calm Calm - N/A   Partly Cloudy
10:53 PM 73.0 °F - 71.1 °F 93% 29.91 in 9.0 mi East 3.5 mph - N/A   Clear
11:53 PM 75.0 °F - 71.1 °F 87% 29.94 in 10.0 mi NNW 4.6 mph - N/A   Clear